TimeEDT,TemperatureF,Dew PointF,Humidity,Sea Level PressureIn,VisibilityMPH,Wind Direction,Wind SpeedMPH,Gust SpeedMPH,PrecipitationIn,Events,Conditions,WindDirDegrees,DateUTC
12:15 AM,36.1,33.8,91,30.10,10.0,Calm,Calm,-,N/A,,Clear,0,2013-09-23 04:15:00
12:34 AM,36.1,33.8,91,30.09,10.0,Calm,Calm,-,N/A,,Clear,0,2013-09-23 04:34:00
12:55 AM,33.8,31.8,92,30.10,10.0,Calm,Calm,-,N/A,,Clear,0,2013-09-23 04:55:00
1:13 AM,33.8,31.8,92,30.10,10.0,Calm,Calm,-,N/A,,Clear,0,2013-09-23 05:13:00
7:30 AM,31.5,29.3,92,30.16,10.0,Calm,Calm,-,N/A,,Clear,0,2013-09-23 11:30:00
7:35 AM,31.5,29.3,92,30.16,10.0,Calm,Calm,-,N/A,,Clear,0,2013-09-23 11:35:00
7:55 AM,31.5,29.1,91,30.17,10.0,Calm,Calm,-,N/A,,Clear,0,2013-09-23 11:55:00
8:14 AM,32.0,29.8,92,30.17,10.0,Calm,Calm,-,N/A,,Clear,0,2013-09-23 12:14:00
8:35 AM,35.4,33.1,91,30.17,10.0,Calm,Calm,-,N/A,,Clear,0,2013-09-23 12:35:00
8:55 AM,38.8,36.3,91,30.17,10.0,Calm,Calm,-,N/A,,Clear,0,2013-09-23 12:55:00
9:14 AM,41.5,37.9,87,30.17,10.0,Calm,Calm,-,N/A,,Clear,0,2013-09-23 13:14:00
9:35 AM,44.4,39.7,84,30.17,10.0,East,3.5,-,N/A,,Clear,90,2013-09-23 13:35:00
9:55 AM,49.1,39.4,69,30.18,10.0,ESE,5.8,-,N/A,,Clear,110,2013-09-23 13:55:00
10:14 AM,51.4,41.0,68,30.18,10.0,East,5.8,-,N/A,,Clear,100,2013-09-23 14:14:00
10:35 AM,51.4,39.2,63,30.18,10.0,SE,4.6,-,N/A,,Clear,140,2013-09-23 14:35:00
10:55 AM,51.4,38.5,61,30.18,10.0,ESE,6.9,-,N/A,,Clear,110,2013-09-23 14:55:00
11:14 AM,52.0,38.7,60,30.18,10.0,SSE,6.9,-,N/A,,Clear,150,2013-09-23 15:14:00
11:35 AM,54.0,39.7,59,30.18,10.0,SSE,3.5,-,N/A,,Clear,160,2013-09-23 15:35:00
11:55 AM,55.0,40.3,58,30.18,10.0,SSE,6.9,-,N/A,,Clear,150,2013-09-23 15:55:00
12:14 PM,55.2,40.1,57,30.18,10.0,East,6.9,-,N/A,,Clear,100,2013-09-23 16:14:00
12:35 PM,56.5,40.6,55,30.18,10.0,SE,4.6,-,N/A,,Clear,140,2013-09-23 16:35:00
12:55 PM,56.5,39.7,54,30.18,10.0,South,4.6,-,N/A,,Clear,180,2013-09-23 16:55:00
1:15 PM,56.5,40.1,54,30.17,10.0,SSE,3.5,-,N/A,,Clear,150,2013-09-23 17:15:00
1:35 PM,57.2,39.4,51,30.17,10.0,SE,5.8,-,N/A,,Clear,140,2013-09-23 17:35:00
1:54 PM,57.2,39.0,51,30.17,10.0,ESE,4.6,-,N/A,,Clear,110,2013-09-23 17:54:00
2:15 PM,59.0,40.5,50,30.17,10.0,East,4.6,-,N/A,,Clear,100,2013-09-23 18:15:00
2:35 PM,59.0,40.6,51,30.16,10.0,SSE,5.8,-,N/A,,Clear,160,2013-09-23 18:35:00
2:54 PM,59.0,41.0,51,30.15,10.0,ESE,8.1,-,N/A,,Clear,110,2013-09-23 18:54:00
3:15 PM,61.3,41.9,49,30.14,10.0,East,5.8,-,N/A,,Clear,80,2013-09-23 19:15:00
3:35 PM,61.5,42.3,49,30.13,10.0,East,6.9,-,N/A,,Clear,100,2013-09-23 19:35:00
3:54 PM,59.9,40.8,49,30.13,10.0,SE,6.9,-,N/A,,Clear,140,2013-09-23 19:54:00
4:15 PM,61.5,41.4,48,30.13,10.0,ESE,3.5,-,N/A,,Clear,120,2013-09-23 20:15:00
4:35 PM,61.7,41.7,48,30.12,10.0,ESE,5.8,-,N/A,,Clear,110,2013-09-23 20:35:00
4:54 PM,61.5,41.7,48,30.12,10.0,SE,4.6,-,N/A,,Clear,140,2013-09-23 20:54:00
5:15 PM,61.7,41.5,48,30.12,10.0,ESE,8.1,-,N/A,,Clear,110,2013-09-23 21:15:00
5:35 PM,61.7,41.7,48,30.13,10.0,South,5.8,-,N/A,,Clear,170,2013-09-23 21:35:00
5:54 PM,59.2,40.1,49,30.13,10.0,East,8.1,-,N/A,,Clear,100,2013-09-23 21:54:00
6:15 PM,59.0,40.6,51,30.13,10.0,SE,6.9,-,N/A,,Clear,140,2013-09-23 22:15:00
6:35 PM,59.0,41.4,52,30.13,10.0,ESE,5.8,-,N/A,,Clear,120,2013-09-23 22:35:00
6:54 PM,59.0,42.3,54,30.13,10.0,SE,5.8,-,N/A,,Clear,130,2013-09-23 22:54:00
7:15 PM,56.5,41.2,57,30.13,10.0,SE,4.6,-,N/A,,Clear,130,2013-09-23 23:15:00
7:34 PM,54.1,42.1,64,30.13,10.0,ESE,4.6,-,N/A,,Clear,120,2013-09-23 23:34:00
7:55 PM,51.4,41.7,69,30.13,10.0,ESE,4.6,-,N/A,,Clear,120,2013-09-23 23:55:00
8:15 PM,51.4,42.6,72,30.12,10.0,ESE,4.6,-,N/A,,Clear,120,2013-09-24 00:15:00
8:34 PM,51.4,43.7,75,30.13,10.0,ESE,3.5,-,N/A,,Clear,120,2013-09-24 00:34:00
8:55 PM,46.9,41.0,80,30.13,10.0,Calm,Calm,-,N/A,,Clear,0,2013-09-24 00:55:00
9:15 PM,46.6,42.1,84,30.13,10.0,Calm,Calm,-,N/A,,Clear,0,2013-09-24 01:15:00
9:34 PM,43.9,40.3,87,30.13,10.0,Calm,Calm,-,N/A,,Clear,0,2013-09-24 01:34:00
9:55 PM,42.6,39.4,88,30.13,10.0,Calm,Calm,-,N/A,,Clear,0,2013-09-24 01:55:00
10:14 PM,42.3,39.2,89,30.13,10.0,Calm,Calm,-,N/A,,Clear,0,2013-09-24 02:14:00
10:35 PM,41.2,37.9,88,30.13,10.0,Calm,Calm,-,N/A,,Clear,0,2013-09-24 02:35:00
10:55 PM,41.2,38.3,89,30.13,10.0,East,3.5,-,N/A,,Clear,100,2013-09-24 02:55:00
11:14 PM,42.8,39.2,87,30.13,10.0,Calm,Calm,-,N/A,,Clear,0,2013-09-24 03:14:00
11:35 PM,45.3,39.9,81,30.12,10.0,East,3.5,-,N/A,,Clear,100,2013-09-24 03:35:00
11:55 PM,45.1,39.9,82,30.13,10.0,East,3.5,-,N/A,,Clear,100,2013-09-24 03:55:00